Imperial, NE

11:51 AM MDT on August 19, 2017 (GMT -0600)
Imperial Municipal

Weather History for KIML - August, 2013

Change the Weather History Date:

Monday, August 12, 2013

  Actual Average Record
Temperature  
Mean Temperature 73 °F 75 °F  
Max Temperature 87 °F 89 °F 102 °F (1947)
Min Temperature 59 °F 61 °F 45 °F (1964)
Degree Days  
Heating Degree Days 0 0  
Month to date heating degree days 0 0  
Since 1 June heating degree days 32 36  
Cooling Degree Days 8 10  
Month to date cooling degree days 99 129  
Year to date cooling degree days 720 713  
Since 1 June cooling degree days 652 669  
Growing Degree Days 23 (Base 50)    
Moisture  
Dew Point 60 °F    
Average Humidity 69    
Maximum Humidity 97    
Minimum Humidity 40    
Precipitation  
Precipitation 0.00 in 0.08 in 1.34 in (2005)
Sea Level Pressure  
Sea Level Pressure 30.05 in    
Wind  
Wind Speed 4 mph (SE)    
Max Wind Speed 12 mph    
Max Gust Speed 16 mph    
Visibility 10 miles    
Events      
T = Trace of Precipitation, MM = Missing Value Source: NWS Daily Summary

Daily Weather History Graph

Daily Weather History Graph

Search for Another Location

Airport or City:

Trip Planner

Search our weather history database for the weather conditions in past years. The results will help you decide how hot, cold, wet, or windy it might be!

Date:

Astronomy

Aug. 12, 2013 Rise Set
Actual Time 5:54 AM MDT 7:47 PM MDT
Civil Twilight 5:24 AM MDT 8:17 PM MDT
Nautical Twilight 4:49 AM MDT 8:52 PM MDT
Astronomical Twilight 4:10 AM MDT 9:31 PM MDT
Moon 11:49 AM MDT (8/12) 10:40 PM MDT (8/12)
Length of Visible Light 14h 52m
Length of Day
13h 53m
Waxing Crescent, 32% of the Moon is Illuminated
Aug 12
Waxing Crescent
Aug 14
First Quarter
Aug 20
Full
Aug 28
Last Quarter
Sep 5
New

Hourly Weather History & Observations

Time (MDT) Temp. Heat Index Dew Point Humidity Pressure Visibility Wind Dir Wind Speed Gust Speed Precip Events Conditions
12:53 AM 64.0 °F - 63.0 °F 96% 30.04 in 6.0 mi NE 4.6 mph - N/A   Partly Cloudy
1:53 AM 64.9 °F - 62.1 °F 90% 30.04 in 9.0 mi Calm Calm - N/A   Partly Cloudy
2:53 AM 63.0 °F - 59.0 °F 87% 30.03 in 10.0 mi Calm Calm - N/A   Clear
3:53 AM 60.1 °F - 59.0 °F 96% 30.05 in 10.0 mi Calm Calm - N/A   Scattered Clouds
4:53 AM 61.0 °F - 59.0 °F 93% 30.04 in 10.0 mi SSE 4.6 mph - N/A   Scattered Clouds
5:53 AM 60.1 °F - 57.9 °F 93% 30.06 in 9.0 mi North 3.5 mph - N/A   Clear
6:34 AM 60.8 °F - 59.0 °F 94% 30.14 in 7.0 mi Calm Calm - N/A   Mostly Cloudy
6:53 AM 63.0 °F - 61.0 °F 93% 30.07 in 8.0 mi Calm Calm - N/A   Overcast
7:25 AM 64.4 °F - 60.8 °F 88% 30.13 in 10.0 mi Calm Calm - N/A   Overcast
7:53 AM 64.0 °F - 61.0 °F 90% 30.07 in 10.0 mi Calm Calm - N/A   Mostly Cloudy
8:53 AM 71.1 °F - 62.1 °F 73% 30.06 in 10.0 mi Variable 3.5 mph - N/A   Clear
9:53 AM 73.9 °F - 63.0 °F 68% 30.07 in 10.0 mi West 3.5 mph - N/A   Clear
10:53 AM 79.0 °F - 64.0 °F 60% 30.06 in 10.0 mi Calm Calm - N/A   Partly Cloudy
11:53 AM 81.0 °F 81.9 °F 62.1 °F 52% 30.06 in 10.0 mi Variable 5.8 mph - N/A   Scattered Clouds
12:53 PM 82.9 °F 83.7 °F 62.1 °F 49% 30.06 in 10.0 mi Calm Calm - N/A   Clear
1:53 PM 84.0 °F 84.0 °F 60.1 °F 44% 30.04 in 10.0 mi Variable 4.6 mph - N/A   Clear
2:53 PM 86.0 °F 85.4 °F 59.0 °F 40% 30.01 in 10.0 mi East 9.2 mph - N/A   Clear
3:53 PM 82.9 °F 82.6 °F 57.9 °F 42% 30.01 in 10.0 mi ESE 5.8 mph - N/A   Clear
4:53 PM 82.9 °F 82.6 °F 57.9 °F 42% 30.00 in 10.0 mi East 8.1 mph - N/A   Clear
5:53 PM 81.0 °F 81.3 °F 59.0 °F 47% 30.00 in 10.0 mi East 6.9 mph - N/A   Clear
6:53 PM 77.0 °F - 61.0 °F 58% 30.01 in 10.0 mi ESE 4.6 mph - N/A   Clear
7:53 PM 73.9 °F - 62.1 °F 66% 30.05 in 10.0 mi SSE 5.8 mph - N/A   Clear
8:53 PM 71.1 °F - 62.1 °F 73% 30.06 in 10.0 mi SE 4.6 mph - N/A   Clear
9:53 PM 71.1 °F - 62.1 °F 73% 30.05 in 10.0 mi South 9.2 mph - N/A   Mostly Cloudy
10:53 PM 70.0 °F - 57.0 °F 63% 30.05 in 10.0 mi SSW 4.6 mph - N/A   Clear
11:53 PM 66.9 °F - 57.0 °F 70% 30.05 in 10.0 mi SW 5.8 mph - N/A   Clear